Date String (YYYY-MM-DD hh:mm:ss) UTC,Instrument flags,absolute air pressure of the measurement (hPa),sample flow rate (lpm),inlet stack bypass flow (lpm),air temperature of the measurement (°C),ambient temperature measured by the external sensor (°C),aerosol sample conditioner tube jacket temperature (°C),OPC LED temperature (°C),internal box temperature (°C),relative humidity of the measurement (%),span deviation,mass concentration of particles derived from Lorenz-Mie calculation of OPC scattering (μg/m³),mass concentration of particles derived from Lorenz-Mie calculation of OPC scattering (μg/m³),mass concentration of particles derived from Lorenz-Mie calculation of OPC scattering (μg/m³)
DateTimeUTC,F1_M11,P_M11,Q1_M11,Q2_M11,T1_M11,T2_M11,T3_M11,T4_M11,T5_M11,U1_M11,ZSPAN_M11,X0_M11,X2_M11,X1_M11
2024-03-03 22:00:00,SystemResetWarning,0815.6,4.99,000.00,018.7,018.1,000.0,026.9,020.3,11.7,0000.0,0002.47,0000.54,0000.21
2024-03-03 22:01:00,SystemResetWarning,0815.7,5.00,000.00,018.7,018.1,000.0,026.9,020.3,12.0,0000.0,0002.79,0000.55,0000.20
2024-03-03 22:02:00,SystemResetWarning,0815.7,5.00,000.00,018.7,018.1,000.0,026.9,020.3,12.2,0000.0,0004.38,0000.51,0000.20
2024-03-03 22:03:00,SystemResetWarning,0815.7,5.00,000.00,018.7,018.1,000.0,026.9,020.3,12.3,0000.0,0004.63,0000.51,0000.20
2024-03-03 22:04:00,SystemResetWarning,0815.7,5.00,000.00,018.7,018.1,000.0,026.9,020.3,12.5,0000.0,0003.66,0000.50,0000.19
2024-03-03 22:05:00,SystemResetWarning,0815.7,5.01,000.00,018.7,018.1,000.0,026.9,020.3,12.6,0000.0,0003.62,0000.48,0000.19
2024-03-03 22:06:00,SystemResetWarning,0815.7,5.00,000.00,018.7,018.0,000.0,026.9,020.3,12.4,0000.0,0003.93,0000.45,0000.18
2024-03-03 22:07:00,SystemResetWarning,0815.7,5.01,000.00,018.7,018.0,000.0,026.9,020.3,12.5,0000.0,0004.56,0000.47,0000.19
2024-03-03 22:08:00,SystemResetWarning,0815.7,5.00,000.00,018.7,018.0,000.0,026.9,020.3,12.6,0000.0,0004.54,0000.48,0000.19
2024-03-03 22:09:00,SystemResetWarning,0815.7,5.00,000.00,018.7,018.0,000.0,026.9,020.3,12.7,0000.0,0004.44,0000.49,0000.19
2024-03-03 22:10:00,SystemResetWarning,0815.6,5.00,000.00,018.7,018.0,000.0,026.9,020.3,12.7,0000.0,0004.42,0000.48,0000.19
2024-03-03 22:11:00,SystemResetWarning,0815.6,5.00,000.00,018.7,018.0,000.0,026.9,020.3,12.7,0000.0,0004.39,0000.47,0000.19
2024-03-03 22:12:00,SystemResetWarning,0815.6,5.00,000.00,018.7,018.0,000.0,026.9,020.3,12.5,0000.0,0004.36,0000.46,0000.20
2024-03-03 22:13:00,SystemResetWarning,0815.7,4.99,000.00,018.7,018.0,000.0,026.9,020.3,12.6,0000.0,0002.87,0000.46,0000.20
2024-03-03 22:14:00,SystemResetWarning,0815.6,5.00,000.00,018.7,018.0,000.0,026.9,020.3,13.0,0000.0,0001.84,0000.44,0000.20
2024-03-03 22:15:00,SystemResetWarning,0815.6,5.00,000.00,018.7,018.0,000.0,026.9,020.3,12.8,0000.0,0001.99,0000.48,0000.21
2024-03-03 22:16:00,SystemResetWarning,0815.6,4.99,000.00,018.7,018.0,000.0,026.9,020.3,12.8,0000.0,0002.06,0000.47,0000.21
2024-03-03 22:17:00,SystemResetWarning,0815.6,5.00,000.00,018.7,018.0,000.0,026.9,020.3,12.9,0000.0,0002.08,0000.47,0000.21
2024-03-03 22:18:00,SystemResetWarning,0815.6,5.00,000.00,018.7,018.0,000.0,026.9,020.3,13.1,0000.0,0001.51,0000.46,0000.21
2024-03-03 22:19:00,SystemResetWarning,0815.6,5.00,000.00,018.7,018.0,000.0,026.9,020.3,13.1,0000.0,0001.47,0000.45,0000.21
2024-03-03 22:20:00,SystemResetWarning,0815.6,5.01,000.00,018.7,018.0,000.0,026.9,020.3,13.1,0000.0,0001.47,0000.45,0000.22
2024-03-03 22:21:00,SystemResetWarning,0815.6,5.00,000.00,018.7,018.1,000.0,026.9,020.3,13.0,0000.0,0001.69,0000.48,0000.22
2024-03-03 22:22:00,SystemResetWarning,0815.6,4.99,000.00,018.7,018.1,000.0,026.9,020.3,13.0,0000.0,0001.82,0000.50,0000.22
2024-03-03 22:23:00,SystemResetWarning,0815.6,5.00,000.00,018.7,018.1,000.0,026.9,020.3,13.0,0000.0,0001.83,0000.49,0000.21
2024-03-03 22:24:00,SystemResetWarning,0815.6,5.00,000.00,018.7,018.1,000.0,026.9,020.3,12.9,0000.0,0001.85,0000.51,0000.22
2024-03-03 22:25:00,SystemResetWarning,0815.6,5.00,000.00,018.7,018.1,000.0,026.9,020.3,13.0,0000.0,0001.90,0000.53,0000.22
2024-03-03 22:26:00,SystemResetWarning,0815.7,5.01,000.00,018.7,018.1,000.0,026.9,020.3,13.0,0000.0,0001.74,0000.48,0000.22
2024-03-03 22:27:00,SystemResetWarning,0815.7,5.00,000.00,018.7,018.1,000.0,026.9,020.3,13.0,0000.0,0001.70,0000.49,0000.22
2024-03-03 22:28:00,SystemResetWarning,0815.8,5.00,000.00,018.7,018.1,000.0,026.9,020.3,12.9,0000.0,0001.47,0000.52,0000.23
2024-03-03 22:29:00,SystemResetWarning,0815.8,5.00,000.00,018.7,018.1,000.0,026.9,020.3,13.0,0000.0,0001.37,0000.54,0000.23
2024-03-03 22:30:00,SystemResetWarning,0815.8,5.01,000.00,018.7,018.1,000.0,026.9,020.3,13.2,0000.0,0001.65,0000.55,0000.23
2024-03-03 22:31:00,SystemResetWarning,0815.8,5.00,000.00,018.7,018.1,000.0,026.9,020.3,13.0,0000.0,0001.91,0000.56,0000.23
2024-03-03 22:32:00,SystemResetWarning,0815.9,5.00,000.00,018.7,018.1,000.0,026.9,020.4,13.2,0000.0,0001.80,0000.55,0000.23
2024-03-03 22:33:00,SystemResetWarning,0815.8,5.00,000.00,018.7,018.1,000.0,027.0,020.4,13.4,0000.0,0001.59,0000.52,0000.23
2024-03-03 22:34:00,SystemResetWarning,0815.7,5.00,000.00,018.7,018.1,000.0,027.0,020.4,13.0,0000.0,0001.62,0000.54,0000.23
2024-03-03 22:35:00,SystemResetWarning,0815.7,5.00,000.00,018.7,018.1,000.0,027.0,020.3,12.9,0000.0,0001.61,0000.54,0000.23
2024-03-03 22:36:00,SystemResetWarning,0815.7,5.00,000.00,018.7,018.1,000.0,027.0,020.3,13.1,0000.0,0001.57,0000.53,0000.23
2024-03-03 22:37:00,SystemResetWarning,0815.6,5.00,000.00,018.7,018.1,000.0,027.0,020.4,13.1,0000.0,0001.82,0000.55,0000.24
2024-03-03 22:38:00,SystemResetWarning,0815.6,5.00,000.00,018.7,018.1,000.0,027.0,020.3,13.0,0000.0,0002.62,0000.61,0000.24
2024-03-03 22:39:00,SystemResetWarning,0815.6,5.01,000.00,018.7,018.1,000.0,027.0,020.3,13.1,0000.0,0002.76,0000.65,0000.26
2024-03-03 22:40:00,SystemResetWarning,0815.6,5.00,000.00,018.7,018.1,000.0,027.0,020.4,13.2,0000.0,0002.70,0000.65,0000.26
2024-03-03 22:41:00,SystemResetWarning,0815.6,5.01,000.00,018.7,018.1,000.0,027.0,020.4,13.1,0000.0,0002.42,0000.63,0000.26
2024-03-03 22:42:00,SystemResetWarning,0815.7,5.00,000.00,018.7,018.1,000.0,027.0,020.3,13.2,0000.0,0002.18,0000.64,0000.26
2024-03-03 22:43:00,SystemResetWarning,0815.7,5.01,000.00,018.7,018.1,000.0,027.0,020.4,13.1,0000.0,0002.21,0000.66,0000.26
2024-03-03 22:44:00,SystemResetWarning,0815.6,5.00,000.00,018.7,018.1,000.0,027.0,020.4,13.2,0000.0,0002.35,0000.67,0000.26
2024-03-03 22:45:00,SystemResetWarning,0815.6,4.99,000.00,018.8,018.1,000.0,027.0,020.4,12.9,0000.0,0002.33,0000.67,0000.27
2024-03-03 22:46:00,SystemResetWarning,0815.6,5.00,000.00,018.8,018.1,000.0,027.0,020.4,12.8,0000.0,0002.52,0000.66,0000.26
2024-03-03 22:47:00,SystemResetWarning,0815.6,5.00,000.00,018.8,018.1,000.0,027.0,020.4,13.0,0000.0,0003.79,0000.68,0000.26
2024-03-03 22:48:00,SystemResetWarning,0815.6,5.00,000.00,018.8,018.1,000.0,027.0,020.4,13.1,0000.0,0003.64,0000.72,0000.27
2024-03-03 22:49:00,SystemResetWarning,0815.7,5.00,000.00,018.8,018.1,000.0,027.0,020.4,13.3,0000.0,0002.89,0000.69,0000.27
2024-03-03 22:50:00,SystemResetWarning,0815.7,5.00,000.00,018.8,018.1,000.0,027.0,020.4,13.2,0000.0,0002.74,0000.65,0000.26
2024-03-03 22:51:00,SystemResetWarning,0815.7,5.00,000.00,018.8,018.1,000.0,027.0,020.4,13.1,0000.0,0003.17,0000.70,0000.26
2024-03-03 22:52:00,SystemResetWarning,0815.8,5.00,000.00,018.8,018.1,000.0,027.0,020.4,13.1,0000.0,0003.58,0000.72,0000.27
2024-03-03 22:53:00,SystemResetWarning,0815.8,5.00,000.00,018.8,018.1,000.0,027.0,020.4,13.1,0000.0,0003.80,0000.77,0000.27
2024-03-03 22:54:00,SystemResetWarning,0815.8,5.00,000.00,018.8,018.1,000.0,027.0,020.4,13.4,0000.0,0003.92,0000.81,0000.28
2024-03-03 22:55:00,SystemResetWarning,0815.8,5.00,000.00,018.8,018.1,000.0,027.0,020.4,13.4,0000.0,0003.87,0000.82,0000.28
2024-03-03 22:56:00,SystemResetWarning,0815.8,5.00,000.00,018.8,018.1,000.0,027.0,020.4,13.4,0000.0,0003.92,0000.81,0000.28
2024-03-03 22:57:00,SystemResetWarning,0815.8,5.01,000.00,018.8,018.1,000.0,027.0,020.5,13.4,0000.0,0003.94,0000.84,0000.28
2024-03-03 22:58:00,SystemResetWarning,0815.8,5.01,000.00,018.8,018.1,000.0,027.0,020.5,13.6,0000.0,0002.81,0000.86,0000.28
2024-03-03 22:59:00,SystemResetWarning,0815.8,5.00,000.00,018.8,018.1,000.0,027.0,020.4,13.9,0000.0,0002.65,0000.83,0000.27
